New Delhi, India

6:14 PM IST on April 25, 2017 (GMT +0530)
Indira Gandhi International Airport

Weather History for VIDP - December, 2013

Change the Weather History Date:

Tuesday, December 3, 2013

  Actual Average Record
Temperature  
Mean Temperature 64 °F -  
Max Temperature 78 °F 69 °F 80 °F (2001)
Min Temperature 51 °F 47 °F 44 °F (2005)
Growing Degree Days 14 (Base 50)    
Moisture  
Dew Point 44 °F    
Average Humidity 49    
Maximum Humidity 72    
Minimum Humidity 26    
Precipitation  
Precipitation 0.00 in - - ()
Sea Level Pressure  
Sea Level Pressure 30.01 in    
Wind  
Wind Speed 4 mph ()    
Max Wind Speed 9 mph    
Max Gust Speed -    
Visibility 1.3 miles    
Events      
Averages and records for this station are not official NWS values.
T = Trace of Precipitation, MM = Missing Value Source: Averaged Metar Reports

Daily Weather History Graph

Daily Weather History Graph

Search for Another Location

Airport or City:

Trip Planner

Search our weather history database for the weather conditions in past years. The results will help you decide how hot, cold, wet, or windy it might be!

Date:

Astronomy

Dec. 03, 2013 Rise Set
Actual Time 6:58 AM IST 5:24 PM IST
Civil Twilight 6:32 AM IST 5:50 PM IST
Nautical Twilight 6:03 AM IST 6:19 PM IST
Astronomical Twilight 5:34 AM IST 6:47 PM IST
Moon 7:00 AM IST (12/3) 5:57 PM IST (12/3)
Length of Visible Light 11h 17m
Length of Day
10h 26m
New Moon, 0% of the Moon is Illuminated
Dec 3
New Moon
Dec 9
First Quarter
Dec 17
Full
Dec 25
Last Quarter
Jan 1
New

Hourly Weather History & Observations

Time (IST) Temp. Dew Point Humidity Pressure Visibility Wind Dir Wind Speed Gust Speed Precip Events Conditions
12:00 AM 59.0 °F 44.6 °F 59% 29.98 in 0.9 mi East 3.5 mph - N/A   Smoke
1:00 AM 57.2 °F 42.8 °F 59% 29.98 in 1.1 mi East 4.6 mph - N/A   Smoke
1:30 AM 57.2 °F 42.8 °F 59% 29.98 in 1.3 mi East 3.5 mph - N/A   Smoke
2:00 AM 57.2 °F 44.6 °F 63% 29.98 in 1.3 mi East 4.6 mph - N/A   Smoke
2:30 AM 57.2 °F 44.6 °F 63% 29.98 in 1.3 mi East 3.5 mph - N/A   Smoke
3:00 AM 57.2 °F 44.6 °F 63% 29.98 in 1.3 mi East 3.5 mph - N/A   Smoke
3:30 AM 57.2 °F 42.8 °F 59% 29.98 in 1.7 mi ESE 4.6 mph - N/A   Smoke
4:30 AM 55.4 °F 42.8 °F 63% 29.98 in 1.9 mi East 4.6 mph - N/A   Smoke
5:00 AM 53.6 °F 42.8 °F 67% 29.98 in 1.8 mi East 4.6 mph - N/A   Smoke
5:30 AM 51.8 °F 42.8 °F 71% 29.98 in 1.7 mi East 4.6 mph - N/A   Smoke
6:00 AM 51.8 °F 42.8 °F 71% 29.98 in 1.6 mi East 4.6 mph - N/A   Smoke
6:30 AM 53.6 °F 42.8 °F 67% 30.01 in 1.4 mi East 4.6 mph - N/A   Smoke
7:00 AM 53.6 °F 42.8 °F 67% 30.01 in 1.4 mi East 4.6 mph - N/A   Smoke
7:30 AM 53.6 °F 44.6 °F 72% 30.01 in 1.2 mi East 4.6 mph - N/A   Smoke
8:00 AM 55.4 °F 44.6 °F 67% 30.01 in 1.1 mi East 4.6 mph - N/A   Smoke
8:30 AM 60.8 °F 44.6 °F 55% 30.04 in 1.0 mi East 2.3 mph - N/A   Smoke
9:30 AM 69.8 °F 46.4 °F 43% 30.06 in 1.4 mi SSE 5.8 mph - N/A   Smoke
10:00 AM 69.8 °F 46.4 °F 43% 30.06 in 1.6 mi SSE 6.9 mph - N/A   Smoke
10:30 AM 73.4 °F 44.6 °F 36% 30.06 in 1.7 mi SSE 8.1 mph - N/A   Haze
11:00 AM 73.4 °F 44.6 °F 36% 30.06 in 1.8 mi SSE 8.1 mph - N/A   Haze
11:30 AM 75.2 °F 44.6 °F 34% 30.06 in 1.8 mi SSE 9.2 mph - N/A   Haze
12:30 PM 77.0 °F 42.8 °F 29% 30.04 in 1.9 mi SSE 9.2 mph - N/A   Haze
1:00 PM 77.0 °F 41.0 °F 28% 30.01 in 1.9 mi SE 8.1 mph - N/A   Haze
1:30 PM 78.8 °F 42.8 °F 28% 30.01 in 1.9 mi SSE 6.9 mph - N/A   Haze
2:00 PM 78.8 °F 41.0 °F 26% 29.98 in 1.9 mi SSE 4.6 mph - N/A   Haze
2:30 PM 78.8 °F 41.0 °F 26% 29.98 in - SSE 3.5 mph - N/A   Haze
3:00 PM 77.0 °F 39.2 °F 26% 29.98 in - SSE 4.6 mph - N/A   Haze
3:30 PM 78.8 °F 41.0 °F 26% 29.98 in - SE 3.5 mph - N/A   Haze
4:00 PM 78.8 °F 41.0 °F 26% 29.98 in - ESE 3.5 mph - N/A   Haze
4:30 PM 77.0 °F 39.2 °F 26% 29.98 in - SE 3.5 mph - N/A   Haze
5:00 PM 75.2 °F 41.0 °F 29% 29.98 in - ENE 3.5 mph - N/A   Haze
6:00 PM 69.8 °F 46.4 °F 43% 29.98 in 1.2 mi Calm Calm - N/A   Smoke
6:30 PM 68.0 °F 46.4 °F 46% 29.98 in 1.1 mi Calm Calm - N/A   Smoke
7:00 PM 66.2 °F 46.4 °F 49% 30.01 in 1.1 mi Calm Calm - N/A   Smoke
7:30 PM 66.2 °F 46.4 °F 49% 30.01 in 1.1 mi Calm Calm - N/A   Smoke
8:00 PM 64.4 °F 46.4 °F 52% 30.04 in 1.0 mi Calm Calm - N/A   Smoke
9:00 PM 62.6 °F 46.4 °F 55% 30.04 in 0.9 mi East 3.5 mph - N/A   Smoke
9:30 PM 62.6 °F 46.4 °F 55% 30.04 in 0.9 mi East 3.5 mph - N/A   Smoke
10:00 PM 62.6 °F 46.4 °F 55% 30.06 in 0.9 mi Calm Calm - N/A   Smoke
10:30 PM 60.8 °F 46.4 °F 59% 30.06 in 0.9 mi Calm Calm - N/A   Smoke
11:00 PM 60.8 °F 44.6 °F 55% 30.06 in 0.8 mi Calm Calm - N/A   Smoke
11:30 PM 60.8 °F 44.6 °F 55% 30.06 in 0.7 mi Calm Calm - N/A   Smoke